Terug naar catalogus

FENGYUN 1C DEB

ActiefSSO
NORAD 30089·DEBRIS·🇨🇳 China

Gelanceerd May 10, 1999 vanaf Taiyuan Satellite Launch Center

Loading…

Volgende Passages (komende 24 uur)

TLE

VersSource: Space-Track

Epoch: Sep 13, 2026, 17:57 UTC

1 30089U 99025QS  26256.74819675  .00000320  00000-0  13581-3 0  9999
2 30089  98.8912 173.4469 0074378 128.3945 288.1907 14.30612415 24103

Volg FENGYUN 1C DEB in realtime met AllMySat

Download on the App Store